Airfield :
LOGIN :

Register | Disclaimer

   EN    FR    IT 

 










Legend :    VFR   Marginal VFR   IFR   Intensive IFR   Very Intensive IFR
Visi :
Ceiling :
>= 8 km
>= 3000ft
5 to 8 km
1000 to 3000 ft
1500m to 5 km
500 to 1000 ft
800 to 1500m
200 to 500 ft
< 800m
< 200 ft
Symbols :   Thunderstorms  Fog  Heavy snow  Heavy precipitations  Wind > 20 kt
SIGMETs :     Misc.  Thunderstorms  Icing  Turbulence  Mountain Waves  Volcanic Ashes







- Airport Elevation : 24 ft
- IATA code : SGD


EKSB - Sonderborg

CURRENT METAR :
  • 151320Z 12007KT CAVOK 19/14 Q1012

EXPIRED METARs :
  • 151250Z 12006KT CAVOK 20/14 Q1012
  • 151220Z 12005KT CAVOK 19/13 Q1012
  • 151150Z 11005KT CAVOK 19/14 Q1012
  • 151120Z 12006KT CAVOK 18/13 Q1012
  • 151050Z 13006KT 100V190 CAVOK 18/13 Q1012

TAF TAF EKSB
Valid from the 15 at 12:00 until the 15 at 18:00 UTC


151108Z 1512/1518 14006KT CAVOK
No reported NOTAMs for that airfield.



MET'MAP, your aeronautical weather chart ! - Copyright ORBIFLY December 2007 - Disclaimer

ORBIFLY MET'MAP TEAM :

Programming & Development : Alexandra Zaïnal
Concept & Development : Baudouin d'Aumeries
Co-Development & Prog : Marc-Olivier Méhu
Technical & hardware support : Manuel Goepfert

Contact : metmap@orbifly.com




SOURCES & CREDITS :

   NOAA